Tracking 20040 objects as of 18-Nov-2019
Live streaming from Space Station
objects crossing your sky now

FENGYUN 1C DEB

Track FENGYUN 1C DEB now!
10-day predictions


NORAD ID: 33748
Int'l Code: 1999-025DJM
Perigee: 797.9 km
Apogee: 859.0 km
Inclination: 98.8 °
Period: 101.3 minutes
Semi major axis: 7199 km
RCS: 0.0021 m2 (small)
Launch date: May 10, 1999
Source: People's Republic of China (PRC)
Launch site: Taiyaun Space Center, China (TSC)

Note: This is SATELLITE DEBRIS
aabbcc
Your satellite tracking list
Your tracking list is empty




NASA's NSSDC Master Catalog

Two Line Element Set (TLE):
1 33748U 99025DJM 19321.32951271 +.00000461 +00000-0 +23019-3 0  9995
2 33748 098.7931 004.8163 0042398 198.3231 161.6420 14.21189878598224
Source of the keplerian elements: AFSPC